[[{"header":{"parameterUnit":"m.s-1","parameterCategory":1,"la1":30.2991,"la2":30.254,"lo1":-89.0895,"lo2":-89.0444,"dy":0.0017,"dx":0.0017,"nx":28,"ny":28,"refTime":"2025-09-01T09:00:00:Z","depth":0,"parameterNumber":2,"parameterNumberName":"U-component_of_WINDS"},"data":[0,0,0,0,0,0,0,0,0,0,0,0,0,0,0,0,0,0,0,0,0,0,0,0,0,0,0,0,0,0,0,0,0,0,0,0,0,0,0,0,0,0,0,0,0,0,0,0,0,0,0,0,0,0,0,0,0,0,-2.935,-2.9351,0,-2.9483,-2.9484,-2.9486,-2.9398,-2.9394,-2.939,-2.9387,-2.9526,-2.9533,-2.9541,0,0,0,0,0,0,0,0,0,0,0,0,0,-2.9023,-2.903,-2.935,-2.9351,-2.9353,-2.9483,-2.9484,-2.9486,-2.9399,-2.9394,-2.9389,-2.9385,-2.9524,-2.9532,-2.9541,0,0,0,0,0,0,0,0,0,0,0,0,0,-2.9162,-2.9032,-2.9349,-2.9325,-2.9324,-2.9482,-2.9485,-2.9487,-2.94,-2.9394,-2.9388,-2.9382,-2.9521,-2.9532,-2.9543,-2.9733,0,0,-2.9577,-2.9582,0,0,0,0,0,0,0,0,-2.9154,-2.9174,-2.9327,-2.9327,-2.9326,-2.9418,-2.942,-2.9569,-2.9402,-2.9372,-2.9387,-2.9379,-2.9495,-2.9508,-2.9546,-2.9739,-2.9745,-2.9578,-2.9585,-2.959,-2.9593,0,0,0,0,0,0,0,-2.9144,-2.9167,-2.9402,-2.9329,-2.9329,-2.9309,-2.9322,-2.9448,-2.9466,-2.9374,-2.9368,-2.9384,-2.9494,-2.9536,-2.9549,-2.9747,-2.9578,-2.9588,-2.9594,-2.9599,-3.0105,-3.0112,0,0,0,0,0,0,-2.9136,-2.916,-2.9398,-2.9406,-2.9223,-2.9319,-2.9334,-2.9395,-2.9464,-2.9469,-2.9389,-2.938,-2.952,-2.9536,-2.9554,-2.9783,-2.9589,-2.96,-2.9606,-3.0098,-3.0107,-3.0114,0,0,0,0,0,0,-2.913,-2.9158,-2.9393,-2.9282,-2.931,-2.9331,-2.94,-2.9401,-2.9442,-2.9476,-2.9479,-2.9429,-2.9516,-2.9538,-2.9689,-2.9786,-2.9605,-2.9615,-3.0091,-3.0101,-3.011,-3.0242,0,0,0,0,0,0,-2.9121,-2.9157,-2.9228,-2.9284,-2.9316,-2.9526,-2.9406,-2.9407,-2.9462,-2.945,-2.9514,-2.9519,-2.9513,-2.9673,-2.97,-2.9798,-2.9624,-3.0082,-3.0095,-3.0107,-3.0229,-3.0255,-3.0277,0,0,0,0,0,-2.9109,-2.926,-2.9233,-2.9262,-2.9406,-2.9531,-2.955,-2.9539,-2.947,-2.9543,-2.9564,-2.9517,-2.9771,-2.9689,-2.9719,-2.9822,-3.0076,-3.0091,-3.0106,-3.0218,-3.025,-3.0277,0,0,0,0,0,0,-2.9217,-2.9267,-2.9237,-2.941,-2.9467,-2.9516,-2.9608,-2.9573,-2.9651,-2.9638,-2.9621,-2.9637,-2.9795,-2.9823,-2.9732,-3.0011,-2.9912,-2.9934,-2.9987,-3.0018,-3.0042,-3.0033,-2.9633,0,0,0,0,0,-2.926,-2.9357,-2.9396,-2.9545,-2.9575,-2.9587,-2.9641,-2.9628,-2.9686,-2.971,-2.9743,-2.9803,-2.9896,-2.9958,-3.0045,-3.0231,-3.0245,-3.0317,-3.0341,-3.0361,-3.0381,-3.0484,-3.0517,-3.0164,-3.0163,-3.0163,0,0,-2.9352,-2.9391,-2.9454,-2.9568,-2.961,-2.9712,-2.9608,-2.9719,-2.9795,-2.9727,-2.9873,-2.9899,-2.9964,-3.0135,-3.0211,-3.0163,-3.0481,-3.038,-3.0396,-3.0405,-3.0503,-3.0536,-3.0566,-3.0174,-3.0172,-3.017,0,0,-2.9571,-2.961,-2.974,-2.9784,-2.985,-2.9856,-2.9888,-2.9943,-2.9957,-3.0102,-3.0054,-3.0144,-3.0304,-3.0354,-3.04,-3.0638,-3.0598,-3.0667,-3.0795,-3.0895,-3.0923,-3.0948,-3.1035,-3.1066,-3.0686,-3.0687,-3.0687,0,-2.9678,-2.9828,-2.9811,-2.9927,-2.9979,-2.9921,-3.0053,-3.0097,-3.0189,-3.0227,-3.0171,-3.0372,-3.0412,-3.0593,-3.0652,-3.069,-3.0727,-3.0661,-3.092,-3.0945,-3.0967,-3.1051,-3.1083,-3.0695,-3.0694,-3.0693,-3.0692,0,-2.9956,-3.0061,-3.0158,-3.0247,-3.031,-3.0433,-3.0436,-3.0502,-3.0483,-3.0496,-3.0646,-3.0691,-3.0788,-3.0829,-3.0812,-3.101,-3.0978,-3.0921,-3.0823,-3.101,-3.1088,-3.1119,-3.0706,-3.0703,-3.0701,-3.0699,0,0,-3.0249,-3.0326,-3.0363,-3.0403,-3.0471,-3.0552,-3.0673,-3.0767,-3.0825,-3.0889,-3.0992,-3.1129,-3.1077,-3.113,-3.1117,-3.1205,-3.1393,-3.1138,-3.1139,-3.1186,-3.1617,-3.1661,-3.1698,-3.1366,-3.1372,-3.1377,-3.1612,0,-3.0474,-3.0684,-3.0673,-3.0871,-3.0969,-3.0915,-3.1021,-3.1074,-3.109,-3.1176,-3.1193,-3.1291,-3.1215,-3.1246,-3.133,-3.1353,-3.148,-3.1335,-3.1464,-3.1468,-3.1452,-3.1738,-3.1785,-3.2005,-3.1642,-3.1647,-3.1651,0,-3.0765,-3.0839,-3.1048,-3.1102,-3.1142,-3.1237,-3.1323,-3.1405,-3.1465,-3.147,-3.1529,-3.1503,-3.1626,-3.1523,-3.1694,-3.1596,-3.1647,-3.1667,-3.1675,-3.1689,-3.1573,-3.1762,-3.2074,-3.2108,-3.1698,-3.1694,-3.1691,0,-3.0961,-3.1113,-3.1257,-3.1293,-3.1359,-3.1428,-3.1459,-3.1512,-3.157,-3.1645,-3.1682,-3.1771,-3.182,-3.189,-3.1888,-3.1812,-3.2063,-3.1958,-3.2073,-3.2073,-3.213,-3.2127,-3.2458,-3.2159,-3.2159,-3.2158,-3.2157,0,-3.1215,-3.1345,-3.1346,-3.1435,-3.158,-3.1565,-3.1709,-3.1732,-3.1781,-3.1875,-3.1833,-3.1922,-3.1913,-3.2004,-3.2003,-3.2147,-3.2169,-3.2178,-3.2177,-3.2184,-3.2183,-3.2219,-3.2205,-3.2167,-3.2165,-3.2163,-3.2162,0,-3.1459,-3.1465,-3.1619,-3.1669,-3.1684,-3.1789,-3.1832,-3.1917,-3.1928,-3.2048,-3.2075,-3.2094,-3.2198,-3.2203,-3.2323,-3.2322,-3.2498,-3.2478,-3.2478,-3.2475,-3.259,-3.258,-3.2958,-3.3008,-3.2674,-3.2677,-3.268,0,-3.1622,-3.1721,-3.1781,-3.1841,-3.1876,-3.1972,-3.203,-3.202,-3.2082,-3.2159,-3.2236,-3.2335,-3.2415,-3.2585,-3.261,-3.2702,-3.2686,-3.2812,-3.27,-3.2704,-3.2691,-3.2686,-3.2697,-3.2834,-3.2838,-3.2841,-3.2844,0,-3.1912,-3.191,-3.1995,-3.2082,-3.2153,-3.2221,-3.2284,-3.2335,-3.2332,-3.2405,-3.251,-3.2572,-3.2695,-3.2796,-3.2885,-3.2918,-3.2882,-3.2878,-3.291,-3.2919,-3.2916,-3.2922,-3.254,-3.287,-3.2868,-3.2866,-3.2864,-3.2863,-3.2122,-3.2208,-3.2265,-3.2361,-3.2407,-3.2468,-3.2551,-3.2572,-3.266,-3.2758,-3.2746,-3.2865,-3.2923,-3.304,-3.308,-3.3173,-3.313,-3.3176,-3.3188,-3.32,-3.3213,-3.2899,-3.3189,-3.3188,-3.3188,-3.3187,-3.3187,0,-3.2412,-3.2446,-3.2534,-3.2624,-3.2701,-3.2657,-3.2725,-3.2793,-3.2897,-3.2954,-3.3033,-3.3156,-3.3253,-3.3286,-3.3381,-3.345,-3.3436,-3.3475,-3.3472,-3.348,-3.3245,-3.3209,-3.3485,-3.3485,-3.3485,-3.3485,-3.3485,-3.3485,-3.2572,-3.2716,-3.2721,-3.2887,-3.292,-3.3035,-3.3078,-3.3133,-3.3179,-3.3318,-3.3398,-3.3418,-3.3466,-3.3564,-3.3653,-3.366,-3.3698,-3.3745,-3.3746,-3.3526,-3.3496,-3.3468,-3.3434,-3.3753,-3.3753,-3.3973,-3.3976,-3.3977]},{"header":{"parameterUnit":"m.s-1","parameterCategory":1,"la1":30.2991,"la2":30.254,"lo1":-89.0895,"lo2":-89.0444,"dy":0.0017,"dx":0.0017,"nx":28,"ny":28,"refTime":"2025-09-01T09:00:00:Z","depth":0,"parameterNumber":3,"parameterNumberName":"V-component_of_WINDS"},"data":[0,0,0,0,0,0,0,0,0,0,0,0,0,0,0,0,0,0,0,0,0,0,0,0,0,0,0,0,0,0,0,0,0,0,0,0,0,0,0,0,0,0,0,0,0,0,0,0,0,0,0,0,0,0,0,0,0,0,-3.7144,-3.7144,0,-3.7131,-3.7131,-3.7131,-3.7059,-3.7057,-3.7056,-3.7054,-3.7041,-3.7042,-3.7043,0,0,0,0,0,0,0,0,0,0,0,0,0,-3.7106,-3.7107,-3.7144,-3.7144,-3.7144,-3.7131,-3.7131,-3.713,-3.7059,-3.7057,-3.7055,-3.7053,-3.704,-3.7042,-3.7043,0,0,0,0,0,0,0,0,0,0,0,0,0,-3.7111,-3.7108,-3.7144,-3.7107,-3.7103,-3.7131,-3.7131,-3.713,-3.706,-3.7057,-3.7055,-3.7052,-3.704,-3.7042,-3.7043,-3.7106,0,0,-3.7049,-3.705,0,0,0,0,0,0,0,0,-3.7111,-3.7112,-3.7112,-3.7109,-3.7105,-3.7094,-3.7112,-3.7122,-3.706,-3.7076,-3.7054,-3.7051,-3.7061,-3.7061,-3.7064,-3.7106,-3.7105,-3.7049,-3.705,-3.7051,-3.7052,0,0,0,0,0,0,0,-3.7111,-3.7113,-3.7139,-3.7112,-3.7108,-3.709,-3.7088,-3.7114,-3.7083,-3.7075,-3.707,-3.7069,-3.7058,-3.7062,-3.7063,-3.7105,-3.7049,-3.7051,-3.7052,-3.7053,-3.7195,-3.7197,0,0,0,0,0,0,-3.7116,-3.7113,-3.7139,-3.7138,-3.7102,-3.7093,-3.709,-3.71,-3.7082,-3.7077,-3.7071,-3.7066,-3.706,-3.7061,-3.7062,-3.7132,-3.7051,-3.7053,-3.7054,-3.7192,-3.7195,-3.7198,0,0,0,0,0,0,-3.7115,-3.7119,-3.714,-3.7124,-3.7125,-3.7096,-3.7108,-3.7101,-3.7105,-3.708,-3.7074,-3.7081,-3.7058,-3.7059,-3.7095,-3.7131,-3.7054,-3.7055,-3.7189,-3.7193,-3.7197,-3.7275,0,0,0,0,0,0,-3.7114,-3.7119,-3.7143,-3.7125,-3.7127,-3.7174,-3.711,-3.7103,-3.7109,-3.7101,-3.7087,-3.7083,-3.7056,-3.7093,-3.7097,-3.7132,-3.7057,-3.7186,-3.7191,-3.7196,-3.7269,-3.7281,-3.7292,0,0,0,0,0,-3.7113,-3.7166,-3.7145,-3.7148,-3.7156,-3.7176,-3.7177,-3.7145,-3.7112,-3.7135,-3.7118,-3.7083,-3.7127,-3.7097,-3.7101,-3.7138,-3.7183,-3.7189,-3.7195,-3.7264,-3.7279,-3.7291,0,0,0,0,0,0,-3.7189,-3.7163,-3.7139,-3.7188,-3.7184,-3.7164,-3.7192,-3.7162,-3.7169,-3.7162,-3.7122,-3.712,-3.7161,-3.7153,-3.712,-3.7196,-3.7149,-3.7156,-3.72,-3.7214,-3.7225,-3.7225,-3.7058,0,0,0,0,0,-3.7212,-3.723,-3.7206,-3.7252,-3.7251,-3.7222,-3.723,-3.7206,-3.7201,-3.7199,-3.7185,-3.7182,-3.7194,-3.7204,-3.7214,-3.7268,-3.7263,-3.7295,-3.7306,-3.7315,-3.7322,-3.7348,-3.7361,-3.7218,-3.7218,-3.7218,0,0,-3.7258,-3.7246,-3.726,-3.7266,-3.7261,-3.728,-3.7222,-3.7245,-3.7259,-3.7203,-3.7235,-3.7225,-3.7218,-3.7263,-3.7282,-3.7257,-3.736,-3.7323,-3.7331,-3.7332,-3.7355,-3.7369,-3.7381,-3.7222,-3.7221,-3.7221,0,0,-3.7352,-3.7346,-3.7382,-3.7377,-3.737,-3.735,-3.7359,-3.7342,-3.7333,-3.7365,-3.7322,-3.7338,-3.7361,-3.7358,-3.7359,-3.745,-3.7417,-3.7455,-3.7513,-3.7539,-3.755,-3.756,-3.7591,-3.7603,-3.7461,-3.7462,-3.7462,0,-3.7411,-3.7439,-3.7404,-3.743,-3.7433,-3.7383,-3.7418,-3.7415,-3.7412,-3.7415,-3.7388,-3.7414,-3.7407,-3.7449,-3.7471,-3.7474,-3.7482,-3.7456,-3.7551,-3.7561,-3.7569,-3.7598,-3.761,-3.7466,-3.7466,-3.7465,-3.7465,0,-3.7511,-3.753,-3.756,-3.7557,-3.7564,-3.7594,-3.7564,-3.7574,-3.755,-3.7532,-3.7564,-3.7553,-3.7559,-3.7568,-3.7544,-3.7606,-3.7591,-3.7558,-3.751,-3.7588,-3.7615,-3.7626,-3.7473,-3.7471,-3.747,-3.7469,0,0,-3.7653,-3.7629,-3.764,-3.7637,-3.7625,-3.7639,-3.7667,-3.7672,-3.7682,-3.7681,-3.7702,-3.7722,-3.7691,-3.7693,-3.7668,-3.7691,-3.7762,-3.7655,-3.7654,-3.7674,-3.7827,-3.7851,-3.7864,-3.774,-3.7742,-3.7743,-3.7827,0,-3.7742,-3.7788,-3.7756,-3.7807,-3.7824,-3.7775,-3.7799,-3.7793,-3.7778,-3.779,-3.7772,-3.7786,-3.7746,-3.7746,-3.7766,-3.7749,-3.7791,-3.7742,-3.7758,-3.7759,-3.776,-3.7878,-3.7904,-3.7983,-3.7837,-3.7839,-3.784,0,-3.7852,-3.7855,-3.7907,-3.7888,-3.7894,-3.7916,-3.7918,-3.793,-3.7922,-3.7909,-3.791,-3.7879,-3.7904,-3.7857,-3.789,-3.7857,-3.7862,-3.7854,-3.7856,-3.7856,-3.7804,-3.7879,-3.8008,-3.8019,-3.7857,-3.7855,-3.7854,0,-3.7949,-3.7965,-3.7998,-3.7997,-3.7977,-3.7993,-3.7986,-3.7975,-3.798,-3.7982,-3.7984,-3.7989,-3.7991,-3.7995,-3.7966,-3.7935,-3.8003,-3.7953,-3.7991,-3.7992,-3.8007,-3.8006,-3.8137,-3.8013,-3.8013,-3.8012,-3.8012,0,-3.8051,-3.8084,-3.8041,-3.8061,-3.8096,-3.8059,-3.8095,-3.8083,-3.8074,-3.809,-3.8049,-3.8065,-3.8026,-3.8037,-3.8015,-3.8045,-3.8047,-3.8036,-3.8029,-3.8039,-3.804,-3.8041,-3.8034,-3.8015,-3.8015,-3.8014,-3.8014,0,-3.8164,-3.8137,-3.8169,-3.8147,-3.8142,-3.8169,-3.8149,-3.8167,-3.8148,-3.8169,-3.8172,-3.8142,-3.8154,-3.8125,-3.8133,-3.8117,-3.816,-3.8145,-3.8162,-3.8157,-3.8196,-3.8193,-3.8331,-3.8346,-3.8214,-3.8215,-3.8216,0,-3.8231,-3.8255,-3.8235,-3.8242,-3.8237,-3.825,-3.8254,-3.8218,-3.8224,-3.8216,-3.8234,-3.8242,-3.8246,-3.8267,-3.8246,-3.8251,-3.8236,-3.8284,-3.8236,-3.8244,-3.8234,-3.8233,-3.8234,-3.8293,-3.8295,-3.8296,-3.8297,0,-3.8351,-3.8335,-3.8343,-3.8345,-3.8351,-3.8351,-3.8349,-3.8357,-3.8319,-3.8328,-3.8339,-3.8342,-3.8349,-3.8357,-3.8357,-3.8349,-3.8317,-3.8312,-3.8321,-3.8331,-3.8339,-3.8333,-3.8188,-3.8309,-3.8308,-3.8307,-3.8306,-3.8306,-3.8441,-3.846,-3.8448,-3.8457,-3.8451,-3.8449,-3.8464,-3.8446,-3.8454,-3.8457,-3.8435,-3.845,-3.844,-3.8437,-3.8432,-3.8443,-3.8421,-3.8434,-3.8437,-3.8441,-3.8446,-3.8338,-3.8443,-3.8443,-3.8442,-3.8442,-3.8442,0,-3.8558,-3.8547,-3.8556,-3.8553,-3.856,-3.8528,-3.8523,-3.8531,-3.8545,-3.8538,-3.8542,-3.8554,-3.8561,-3.8541,-3.8545,-3.8557,-3.8542,-3.8559,-3.8557,-3.8556,-3.8467,-3.8458,-3.8571,-3.8571,-3.8571,-3.8571,-3.8571,-3.8571,-3.8619,-3.8648,-3.8631,-3.8656,-3.8645,-3.8659,-3.8658,-3.8656,-3.865,-3.8665,-3.867,-3.8656,-3.8644,-3.8646,-3.8651,-3.8644,-3.8647,-3.8669,-3.8658,-3.8575,-3.8562,-3.855,-3.8541,-3.867,-3.8671,-3.8745,-3.8746,-3.8747]}]]